Time,TemperatureF,DewpointF,PressureIn,WindDirection,WindDirectionDegrees,WindSpeedMPH,WindSpeedGustMPH,Humidity,HourlyPrecipIn,Conditions,Clouds,dailyrainin,SolarRadiationWatts/m^2,SoftwareType,DateUTC
2013-04-27 00:01:00,47.0,46.0,-100.00,WSW,248,1.0,2.0,95,0.00,,,0.00,0.000000,,2013-04-27 07:01:00,
2013-04-27 00:32:00,47.0,46.0,-100.00,SW,223,1.0,3.0,96,0.00,,,-99.99,0.000000,,2013-04-27 07:32:00,
2013-04-27 00:42:00,47.0,46.0,-100.00,SW,223,1.0,3.0,96,0.00,,,-99.99,0.000000,,2013-04-27 07:42:00,
2013-04-27 00:52:00,47.0,46.0,-100.00,SW,223,1.0,3.0,96,0.00,,,-99.99,0.000000,,2013-04-27 07:52:00,
2013-04-27 01:01:00,47.0,46.0,-100.00,SW,223,1.0,3.0,96,0.00,,,-99.99,0.000000,,2013-04-27 08:01:00,
2013-04-27 01:33:00,46.0,45.0,-100.00,WSW,255,0.0,2.0,96,0.00,,,0.00,0.000000,,2013-04-27 08:33:00,
2013-04-27 01:42:00,46.0,45.0,-100.00,WSW,255,0.0,2.0,96,0.00,,,0.00,0.000000,,2013-04-27 08:42:00,
2013-04-27 01:52:00,46.0,45.0,-100.00,WSW,255,0.0,2.0,96,0.00,,,0.00,0.000000,,2013-04-27 08:52:00,
2013-04-27 02:01:00,46.0,45.0,-100.00,WSW,255,0.0,2.0,96,0.00,,,0.00,0.000000,,2013-04-27 09:01:00,
2013-04-27 02:33:00,46.0,45.0,-100.00,NW,315,0.0,4.0,96,0.00,,,0.00,0.000000,,2013-04-27 09:33:00,
2013-04-27 02:43:00,46.0,45.0,-100.00,NW,315,0.0,4.0,96,0.00,,,0.00,0.000000,,2013-04-27 09:43:00,
2013-04-27 02:53:00,46.0,45.0,-100.00,NW,315,0.0,4.0,96,0.00,,,0.00,0.000000,,2013-04-27 09:53:00,
2013-04-27 03:02:00,46.0,45.0,-100.00,NW,315,0.0,4.0,96,0.00,,,0.00,0.000000,,2013-04-27 10:02:00,
2013-04-27 03:33:00,47.0,46.0,-100.00,NNE,30,0.0,2.0,97,0.00,,,0.00,0.000000,,2013-04-27 10:33:00,
2013-04-27 03:42:00,47.0,46.0,-100.00,NNE,30,0.0,2.0,97,0.00,,,0.00,0.000000,,2013-04-27 10:42:00,
2013-04-27 03:52:00,47.0,46.0,-100.00,NNE,30,0.0,2.0,97,0.00,,,0.00,0.000000,,2013-04-27 10:52:00,
2013-04-27 04:02:00,47.0,46.0,-100.00,NNE,30,0.0,2.0,97,0.00,,,0.00,0.000000,,2013-04-27 11:02:00,
2013-04-27 04:32:00,47.0,46.0,-100.00,West,265,1.0,3.0,97,0.00,,,0.00,0.000000,,2013-04-27 11:32:00,
2013-04-27 04:42:00,47.0,46.0,-100.00,West,265,1.0,3.0,97,0.00,,,0.00,0.000000,,2013-04-27 11:42:00,
2013-04-27 04:52:00,47.0,46.0,-100.00,West,265,1.0,3.0,97,0.00,,,0.00,0.000000,,2013-04-27 11:52:00,
2013-04-27 05:01:00,47.0,46.0,-100.00,West,265,1.0,3.0,97,0.00,,,0.00,0.000000,,2013-04-27 12:01:00,
2013-04-27 05:32:00,47.0,46.0,-100.00,SE,133,1.0,3.0,97,0.00,,,0.00,0.000000,,2013-04-27 12:32:00,
2013-04-27 05:42:00,47.0,46.0,-100.00,SE,133,1.0,3.0,97,0.00,,,0.00,0.000000,,2013-04-27 12:42:00,
2013-04-27 05:52:00,47.0,46.0,-100.00,SE,133,1.0,3.0,97,0.00,,,0.00,0.000000,,2013-04-27 12:52:00,
2013-04-27 06:01:00,47.0,46.0,-100.00,SE,133,1.0,3.0,97,0.00,,,0.00,0.000000,,2013-04-27 13:01:00,
2013-04-27 06:32:00,46.0,45.0,-100.00,WNW,298,0.0,2.0,97,0.00,,,0.00,0.000000,,2013-04-27 13:32:00,
2013-04-27 06:42:00,46.0,45.0,-100.00,WNW,298,0.0,2.0,97,0.00,,,0.00,0.000000,,2013-04-27 13:42:00,
2013-04-27 06:52:00,46.0,45.0,-100.00,WNW,298,0.0,2.0,97,0.00,,,0.00,0.000000,,2013-04-27 13:52:00,
2013-04-27 07:02:00,46.0,45.0,-100.00,WNW,298,0.0,2.0,97,0.00,,,0.00,0.000000,,2013-04-27 14:02:00,
2013-04-27 07:32:00,46.0,45.0,-100.00,SE,145,0.0,2.0,97,0.00,,,-99.99,8.000000,,2013-04-27 14:32:00,
2013-04-27 07:42:00,46.0,45.0,-100.00,SE,145,0.0,2.0,97,0.00,,,-99.99,8.000000,,2013-04-27 14:42:00,
2013-04-27 07:52:00,46.0,45.0,-100.00,SE,145,0.0,2.0,97,0.00,,,-99.99,8.000000,,2013-04-27 14:52:00,
2013-04-27 08:01:00,46.0,45.0,-100.00,SE,145,0.0,2.0,97,0.00,,,-99.99,8.000000,,2013-04-27 15:01:00,
2013-04-27 08:33:00,52.0,50.0,-100.00,NE,47,2.0,2.0,94,0.00,,,0.00,154.000000,,2013-04-27 15:33:00,
2013-04-27 08:43:00,52.0,50.0,-100.00,NE,47,2.0,2.0,94,0.00,,,0.00,154.000000,,2013-04-27 15:43:00,
2013-04-27 08:53:00,52.0,50.0,-100.00,NE,47,2.0,2.0,94,0.00,,,0.00,154.000000,,2013-04-27 15:53:00,
2013-04-27 09:02:00,52.0,50.0,-100.00,NE,47,2.0,2.0,94,0.00,,,0.00,154.000000,,2013-04-27 16:02:00,
2013-04-27 09:33:00,61.0,50.0,-100.00,NE,38,2.0,4.0,67,0.00,,,0.00,431.000000,,2013-04-27 16:33:00,
2013-04-27 09:42:00,61.0,50.0,-100.00,NE,38,2.0,4.0,67,0.00,,,0.00,431.000000,,2013-04-27 16:42:00,
2013-04-27 09:53:00,61.0,50.0,-100.00,NE,38,2.0,4.0,67,0.00,,,0.00,431.000000,,2013-04-27 16:53:00,
2013-04-27 10:02:00,61.0,50.0,-100.00,NE,38,2.0,4.0,67,0.00,,,0.00,431.000000,,2013-04-27 17:02:00,
2013-04-27 10:32:00,68.0,53.0,-100.00,South,170,3.0,6.0,58,-99.99,,,0.00,632.000000,,2013-04-27 17:32:00,
2013-04-27 11:32:00,68.0,52.0,-100.00,SSW,192,5.0,10.0,57,-99.99,,,0.00,795.000000,,2013-04-27 18:32:00,
2013-04-27 11:42:00,68.0,52.0,-100.00,SSW,192,5.0,10.0,57,-99.99,,,0.00,795.000000,,2013-04-27 18:42:00,
2013-04-27 11:52:00,68.0,52.0,-100.00,SSW,192,5.0,10.0,57,-99.99,,,0.00,795.000000,,2013-04-27 18:52:00,
2013-04-27 12:32:00,69.0,53.0,-100.00,SSW,209,5.0,10.0,56,-99.99,,,0.00,903.000000,,2013-04-27 19:32:00,
2013-04-27 12:42:00,69.0,53.0,-100.00,SSW,209,5.0,10.0,56,-99.99,,,0.00,903.000000,,2013-04-27 19:42:00,
2013-04-27 12:53:00,69.0,53.0,-100.00,SSW,209,5.0,10.0,56,-99.99,,,0.00,903.000000,,2013-04-27 19:53:00,
2013-04-27 13:32:00,72.0,53.0,-100.00,NW,315,3.0,10.0,52,-99.99,,,0.00,951.000000,,2013-04-27 20:32:00,
2013-04-27 14:33:00,73.0,53.0,-100.00,NW,316,3.0,10.0,49,-99.99,,,0.00,944.000000,,2013-04-27 21:33:00,
2013-04-27 15:32:00,71.0,51.0,-100.00,NW,323,3.0,8.0,50,-99.99,,,0.00,877.000000,,2013-04-27 22:32:00,
2013-04-27 16:32:00,67.0,50.0,-100.00,NNW,341,3.0,7.0,54,-99.99,,,0.00,751.000000,,2013-04-27 23:32:00,
2013-04-27 16:42:00,67.0,50.0,-100.00,NNW,341,3.0,7.0,54,-99.99,,,0.00,751.000000,,2013-04-27 23:42:00,
2013-04-27 16:52:00,67.0,50.0,-100.00,NNW,341,3.0,7.0,54,-99.99,,,0.00,751.000000,,2013-04-27 23:52:00,
2013-04-27 18:32:00,63.0,52.0,-100.00,SSW,213,2.0,4.0,67,-99.99,,,0.00,164.000000,,2013-04-28 01:32:00,
2013-04-27 18:42:00,63.0,52.0,-100.00,SSW,213,2.0,4.0,67,-99.99,,,0.00,164.000000,,2013-04-28 01:42:00,
2013-04-27 18:52:00,63.0,52.0,-100.00,SSW,213,2.0,4.0,67,-99.99,,,0.00,164.000000,,2013-04-28 01:52:00,
2013-04-27 19:01:00,63.0,52.0,-100.00,SSW,213,2.0,4.0,67,-99.99,,,0.00,164.000000,,2013-04-28 02:01:00,
2013-04-27 19:32:00,59.0,50.0,-100.00,SSW,192,1.0,5.0,73,-99.99,,,0.00,30.000000,,2013-04-28 02:32:00,
2013-04-27 19:42:00,59.0,50.0,-100.00,SSW,192,1.0,5.0,73,-99.99,,,0.00,30.000000,,2013-04-28 02:42:00,
2013-04-27 19:52:00,59.0,50.0,-100.00,SSW,192,1.0,5.0,73,-99.99,,,0.00,30.000000,,2013-04-28 02:52:00,
2013-04-27 20:01:00,59.0,50.0,-100.00,SSW,192,1.0,5.0,73,-99.99,,,0.00,30.000000,,2013-04-28 03:01:00,
2013-04-27 20:33:00,56.0,51.0,-100.00,SSW,209,1.0,3.0,83,0.00,,,0.00,11.000000,,2013-04-28 03:33:00,
2013-04-27 20:43:00,56.0,51.0,-100.00,SSW,209,1.0,3.0,83,0.00,,,0.00,11.000000,,2013-04-28 03:43:00,
2013-04-27 20:53:00,56.0,51.0,-100.00,SSW,209,1.0,3.0,83,0.00,,,0.00,11.000000,,2013-04-28 03:53:00,
2013-04-27 21:02:00,56.0,51.0,-100.00,SSW,209,1.0,3.0,83,0.00,,,0.00,11.000000,,2013-04-28 04:02:00,
2013-04-27 21:32:00,53.0,50.0,-100.00,South,180,0.0,2.0,88,0.00,,,0.00,0.000000,,2013-04-28 04:32:00,
2013-04-27 21:43:00,53.0,50.0,-100.00,South,180,0.0,2.0,88,0.00,,,0.00,0.000000,,2013-04-28 04:43:00,
2013-04-27 21:53:00,53.0,50.0,-100.00,South,180,0.0,2.0,88,0.00,,,0.00,0.000000,,2013-04-28 04:53:00,
2013-04-27 22:02:00,53.0,50.0,-100.00,South,180,0.0,2.0,88,0.00,,,0.00,0.000000,,2013-04-28 05:02:00,
2013-04-27 22:32:00,51.0,49.0,-100.00,South,183,1.0,2.0,92,0.00,,,0.00,0.000000,,2013-04-28 05:32:00,
2013-04-27 22:42:00,51.0,49.0,-100.00,South,183,1.0,2.0,92,0.00,,,0.00,0.000000,,2013-04-28 05:42:00,
2013-04-27 22:52:00,51.0,49.0,-100.00,South,183,1.0,2.0,92,0.00,,,0.00,0.000000,,2013-04-28 05:52:00,
2013-04-27 23:01:00,51.0,49.0,-100.00,South,183,1.0,2.0,92,0.00,,,0.00,0.000000,,2013-04-28 06:01:00,
2013-04-27 23:32:00,50.0,48.0,-100.00,South,187,0.0,2.0,94,0.00,,,0.00,0.000000,,2013-04-28 06:32:00,
2013-04-27 23:42:00,50.0,48.0,-100.00,South,187,0.0,2.0,94,0.00,,,0.00,0.000000,,2013-04-28 06:42:00,
2013-04-27 23:52:00,50.0,48.0,-100.00,South,187,0.0,2.0,94,0.00,,,0.00,0.000000,,2013-04-28 06:52:00,